User: anonymous   Login
Location: Caltech
(34.1382°N, 118.1253°W)
Time: 01:28:11
(UTC-07:00)
Language:

Cosmos 2251 Rocket - Orbit

View from above orbital plane
View from above orbital plane
View from above satellite
View from above satellite

Ground track
Ground track

The orbit data is extracted from the following two-line orbital elements,

1 22676U 93036B   15141.42989944  .00000255  00000-0  10105-3 0  9997
2 22676 074.0412 127.5836 0019366 336.3574 023.6685 14.33785590146737
Epoch (UTC): 21 May 2015 10:19:03
Eccentricity: 0.0019366
inclination: 74.0412°
perigee height: 765 km
apogee height: 793 km
right ascension of ascending node: 127.5836°
argument of perigee: 336.3574°
revolutions per day: 14.33785590
mean anomaly at epoch: 23.6685°
orbit number at epoch: 14673

The dashed part of the orbit path shows where the satellite is in the earth's shadow,  

DLR